Regional Weather Roundup
Issued by NWS

Home | Current Version | Previous Version | Text Only | Print | Product List | Glossary Off
Versions: 1 2 3 4 5 6 7 8 9 10 11 12 13 14 15 16 17 18 19 20 21 22 23 24 25 26 27 28 29 30 31 32 33 34 35 36 37 38 39 40 41 42 43 44 45 46 47 48 49

000
ASUS45 KCYS 151610
RWRWY

WYOMING REGIONAL WEATHER ROUNDUP
NATIONAL WEATHER SERVICE CHEYENNE WY
1000 AM MDT MON SEP 15 2014

NOTE:  "FAIR" INDICATES FEW OR NO CLOUDS BELOW 12,000 FEET
WITH NO SIGNIFICANT WEATHER AND/OR OBSTRUCTIONS TO VISIBILITY.

WYZ001-151700-
YELLOWSTONE NATIONAL PARK

CITY           SKY/WX    TMP DP  RH WIND       PRES   REMARKS
LK YELLOWSTONE   N/A     48  37  65 VRB3      30.35S
W YELLOWSTONE  NOT AVBL

$$
WYZ002>013-054>058-071-098>099-151700-
NORTHERN WYOMING

CITY           SKY/WX    TMP DP  RH WIND       PRES   REMARKS
JACKSON        SUNNY     48  28  46 CALM      30.31F
CODY           SUNNY     55  39  54 S6        30.22S
GREYBULL       SUNNY     53  41  63 CALM      30.22F
WORLAND        SUNNY     56  43  61 NW5       30.21F
SHERIDAN       SUNNY     53  41  63 N3        30.20F
BUFFALO        SUNNY     53  41  63 SE10      30.23S
GILLETTE       SUNNY     57  43  59 S8        30.24F
HULETT         FAIR      55  43  62 MISG      30.27
NEWCASTLE      FAIR      50  41  71 SE8       30.30

$$
WYZ014>020-022>026-101>103-151700-
CENTRAL WYOMING

CITY           SKY/WX    TMP DP  RH WIND       PRES   REMARKS
BIG PINEY      MOSUNNY   52  32  46 CALM      30.36F
PINEDALE       PTSUNNY   52  28  40 CALM      30.37R
DUBOIS         FAIR      50  30  46 N3        30.31F
LANDER         SUNNY     55  37  50 SE3       30.27F
RIVERTON       SUNNY     52  38  58 CALM      30.29F
CASPER         SUNNY     54  39  57 VRB5      30.28F
DOUGLAS        SUNNY     54  43  66 SE6       30.29F

$$
WYZ021-027>030-104>119-151700-
SOUTHERN WYOMING

CITY           SKY/WX    TMP DP  RH WIND       PRES   REMARKS
EVANSTON       MOSUNNY   58  40  51 N10       30.32S
KEMMERER       MOSUNNY   59  32  36 N6        30.35S
FORT BRIDGER   PTSUNNY   61  37  41 N5        30.36R
ROCK SPRINGS   MOSUNNY   56  35  45 N6        30.34R
DIXON          FAIR      59  38  45 SE3       30.35S
RAWLINS        SUNNY     54  42  64 E6        30.34F
SARATOGA       FAIR      59  36  41 SE6       30.36S
LARAMIE        SUNNY     57  38  48 S10       30.36F
CHEYENNE       SUNNY     57  32  38 S7        30.36F
TORRINGTON     SUNNY     52  43  71 VRB5      30.32S
PINE BLUFFS    FAIR      52  45  76 CALM      30.36S

$$



USA.gov is the U.S. government's official web portal to all federal, state and local government web resources and services.